Total_Precipitation_Accumulation
2.22 2.47 3.25 4.05 4.51 3.39 2.43 1.93 1.60 1.39 1.13 0.86 0.69 0.69 0.98 1.42 1.77 1.78 1.66 1.50 0.94 0.81 0.85 1.18 1.42 1.36 1.23 1.13 1.10 1.08 1.04 1.02 1.03 0.99 0.92 0.81 0.70 0.61 0.60 0.55 0.53 0.54 0.56 0.60 0.62 0.66 0.65 0.64 0.70
1.93 2.64 3.80 4.57 3.78 2.62 2.23 1.76 1.51 1.19 0.91 0.69 0.59 0.50 0.62 0.51 0.54 0.98 1.81 1.76 0.96 0.74 0.82 1.10 1.45 1.39 1.29 1.23 1.23 1.19 1.07 0.99 1.00 0.93 0.88 0.81 0.76 0.67 0.67 0.69 0.59 0.58 0.59 0.60 0.58 0.59 0.64 0.67 0.75
2.22 3.09 4.23 4.24 2.93 2.24 2.18 1.63 1.22 0.85 0.62 0.62 0.62 0.50 0.58 0.73 0.87 1.35 1.72 1.26 0.87 0.75 0.81 1.21 1.55 1.40 1.30 1.29 1.38 1.33 1.20 1.08 0.98 0.91 0.89 0.85 0.84 0.80 0.84 0.75 0.69 0.69 0.68 0.67 0.70 0.71 0.75 0.79 0.85
2.47 3.50 3.81 3.17 2.40 1.84 1.58 1.32 1.00 0.86 0.59 0.38 0.45 0.59 0.54 0.80 0.99 1.21 1.18 0.86 0.65 0.65 0.70 1.09 1.55 1.40 1.26 1.24 1.38 1.31 1.17 1.15 1.06 1.00 0.97 0.95 0.99 1.07 0.95 0.85 0.83 0.78 0.77 0.75 0.79 0.82 0.89 0.93 0.91
2.72 3.47 3.41 2.98 2.23 1.92 1.45 1.13 0.96 0.93 0.73 0.47 0.42 0.65 0.72 1.06 1.11 1.10 1.02 0.86 0.66 0.64 0.66 0.90 1.34 1.31 1.17 1.16 1.25 1.23 1.16 1.18 1.07 1.00 1.00 1.01 1.04 1.17 1.19 1.07 0.96 0.92 0.89 0.87 0.86 0.85 0.84 0.89 0.98
3.12 3.19 3.19 2.97 2.40 2.12 1.68 1.24 0.89 0.81 0.67 0.54 0.49 0.69 0.94 1.34 1.26 1.19 1.04 1.00 0.86 0.74 0.63 0.74 1.12 1.18 1.10 1.14 1.19 1.19 1.13 1.06 0.93 0.94 0.99 1.02 1.03 1.12 1.20 1.16 1.05 1.03 1.00 1.00 0.99 0.97 0.92 0.93 0.96
2.89 2.84 2.54 2.13 2.26 2.40 1.71 1.10 1.02 0.95 0.87 0.76 0.53 0.75 1.05 1.41 1.25 1.01 1.01 1.12 1.21 1.10 0.92 0.83 0.87 0.91 1.00 1.09 1.13 1.26 1.29 1.09 0.93 0.89 0.90 0.90 0.92 0.95 1.03 1.06 1.02 1.00 1.02 1.03 1.03 1.01 1.01 1.04 1.02
2.37 2.40 2.16 2.06 2.29 2.44 1.47 0.96 0.80 0.77 0.78 0.52 0.43 0.66 0.85 1.07 1.15 1.05 1.01 1.13 1.13 1.11 1.06 0.98 0.97 0.93 0.92 0.95 1.15 1.41 1.52 1.33 1.06 0.93 0.87 0.89 0.86 0.85 0.93 0.92 0.98 1.03 1.10 1.13 1.15 1.14 1.08 1.16 1.16
2.03 2.32 2.35 2.28 2.21 1.93 1.17 0.88 0.69 0.48 0.50 0.45 0.35 0.50 0.64 0.70 0.87 1.02 1.07 1.11 1.06 1.02 1.02 0.97 0.96 0.98 1.08 1.09 1.17 1.43 1.58 1.53 1.16 0.96 0.93 0.84 0.70 0.82 0.89 0.83 1.06 1.17 1.26 1.27 1.29 1.25 1.15 1.16 1.18
2.07 2.25 2.12 1.73 1.53 1.25 0.96 0.82 0.65 0.66 0.74 0.61 0.44 0.53 0.65 0.70 0.78 0.87 0.92 0.88 0.86 0.86 0.86 0.85 0.85 0.82 0.85 0.91 1.24 1.45 1.35 1.42 1.14 1.08 1.00 0.92 0.95 1.00 0.85 0.82 1.06 1.21 1.31 1.29 1.27 1.27 1.18 1.05 0.90
1.75 1.85 1.53 1.32 1.13 0.91 0.85 0.79 0.60 0.71 0.86 0.64 0.46 0.52 0.64 0.74 0.82 0.79 0.82 0.79 0.72 0.73 0.65 0.59 0.62 0.60 0.62 0.73 0.89 1.17 1.42 1.46 1.42 1.36 1.26 1.19 1.10 0.94 0.83 0.83 0.87 0.98 1.08 1.03 1.11 1.11 1.01 0.95 0.89
1.53 1.45 1.26 1.14 0.85 0.89 0.88 0.74 0.65 0.61 0.63 0.47 0.43 0.47 0.59 0.74 0.85 0.78 0.79 0.81 0.76 0.77 0.76 0.61 0.52 0.53 0.52 0.55 0.68 0.92 1.14 1.28 1.29 1.20 1.11 1.29 1.23 1.01 0.90 0.97 0.98 0.98 1.05 1.21 1.26 1.20 1.11 1.01 0.91
1.41 1.46 1.18 0.97 0.85 0.90 0.83 0.75 0.64 0.65 0.53 0.42 0.42 0.54 0.69 0.79 0.86 0.86 0.82 0.84 0.82 0.80 0.84 0.74 0.55 0.46 0.49 0.52 0.57 0.64 0.87 1.02 1.01 1.15 1.11 1.15 1.14 1.02 0.93 0.94 1.09 1.06 1.09 1.25 1.37 1.22 1.17 1.18 1.12
1.23 1.19 1.14 0.98 0.90 0.92 0.91 0.74 0.63 0.75 0.65 0.54 0.59 0.67 0.77 0.81 0.82 0.81 0.77 0.75 0.72 0.71 0.74 0.70 0.60 0.56 0.52 0.49 0.49 0.53 0.57 0.73 0.75 0.77 0.76 0.96 1.07 1.06 1.08 0.98 1.05 1.20 1.25 1.25 1.27 1.25 1.18 1.15 1.18
1.02 1.10 1.23 1.13 1.09 1.05 0.91 0.94 0.73 0.76 0.76 0.64 0.61 0.66 0.80 0.75 0.73 0.73 0.69 0.63 0.58 0.59 0.59 0.62 0.63 0.65 0.63 0.61 0.60 0.56 0.57 0.60 0.67 0.75 0.76 0.88 0.99 1.06 1.08 0.97 1.00 1.16 1.36 1.33 1.27 1.22 1.22 1.09 1.07
1.16 1.44 1.68 1.38 1.18 1.16 1.04 1.11 0.83 0.83 0.79 0.67 0.61 0.60 0.66 0.54 0.54 0.58 0.56 0.51 0.49 0.46 0.44 0.51 0.53 0.58 0.63 0.66 0.69 0.64 0.67 0.69 0.67 0.73 0.72 0.75 0.91 1.07 1.16 1.08 1.04 1.20 1.39 1.54 1.59 1.44 1.37 1.26 1.20
1.48 1.58 1.50 1.40 1.12 1.13 1.04 1.04 0.90 0.79 0.72 0.61 0.57 0.58 0.54 0.45 0.41 0.42 0.42 0.39 0.36 0.35 0.32 0.35 0.41 0.46 0.52 0.60 0.67 0.69 0.71 0.85 0.93 0.83 0.71 0.76 0.89 1.01 1.21 1.29 1.24 1.27 1.43 1.49 1.50 1.52 1.43 1.41 1.36
1.19 1.20 1.19 1.25 1.05 0.96 0.92 0.85 0.88 0.74 0.58 0.50 0.46 0.45 0.46 0.41 0.35 0.34 0.32 0.30 0.31 0.30 0.28 0.30 0.36 0.38 0.39 0.49 0.65 0.75 0.72 0.82 1.04 1.07 1.06 1.10 1.16 1.22 1.37 1.46 1.44 1.45 1.51 1.50 1.61 1.80 1.62 1.46 1.47
0.88 0.89 0.93 0.85 0.73 0.82 0.82 0.77 0.81 0.75 0.60 0.46 0.37 0.36 0.34 0.34 0.35 0.31 0.27 0.26 0.26 0.24 0.23 0.27 0.31 0.35 0.36 0.44 0.54 0.63 0.74 0.92 1.12 1.18 1.25 1.40 1.42 1.44 1.56 1.66 1.69 1.63 1.55 1.61 1.78 2.15 2.04 1.68 1.53
0.81 0.79 0.84 0.74 0.64 0.66 0.75 0.79 0.76 0.69 0.61 0.48 0.38 0.30 0.24 0.25 0.26 0.23 0.22 0.20 0.19 0.16 0.16 0.21 0.29 0.38 0.43 0.49 0.63 0.78 1.01 1.13 1.27 1.42 1.42 1.45 1.51 1.54 1.60 1.81 1.92 1.86 1.84 1.94 1.97 2.22 2.36 2.09 1.89
0.79 0.72 0.66 0.69 0.66 0.64 0.69 0.87 0.82 0.74 0.60 0.48 0.39 0.29 0.22 0.23 0.22 0.17 0.16 0.18 0.17 0.14 0.15 0.21 0.34 0.54 0.74 0.84 1.07 1.33 1.59 1.67 1.61 1.60 1.65 1.64 1.66 1.73 1.70 1.82 2.01 1.98 1.94 1.99 2.17 2.47 2.76 2.67 2.41
0.78 0.55 0.48 0.58 0.69 0.77 0.64 0.88 0.77 0.70 0.64 0.50 0.41 0.34 0.25 0.26 0.26 0.21 0.21 0.20 0.18 0.19 0.27 0.42 0.65 0.96 1.21 1.35 1.53 1.74 1.85 1.89 1.83 1.84 1.82 1.80 1.72 1.65 1.66 1.79 1.99 2.13 2.21 2.26 2.32 2.34 2.69 2.92 2.74
0.62 0.50 0.48 0.57 0.67 0.67 0.57 0.68 0.64 0.58 0.64 0.56 0.51 0.45 0.38 0.35 0.30 0.30 0.33 0.34 0.37 0.47 0.65 0.93 1.18 1.42 1.58 1.63 1.71 1.90 2.05 2.21 2.23 2.12 1.96 1.84 1.81 1.75 1.66 1.71 1.79 1.83 1.92 2.04 2.16 2.24 2.47 2.64 2.77
0.51 0.57 0.60 0.61 0.68 0.76 0.53 0.51 0.61 0.53 0.52 0.56 0.57 0.51 0.44 0.40 0.38 0.46 0.59 0.69 0.80 0.90 1.07 1.28 1.42 1.56 1.56 1.56 1.61 1.73 1.92 2.08 2.10 2.12 2.08 1.95 1.82 1.72 1.63 1.57 1.66 1.69 1.70 1.84 1.95 2.04 2.28 2.46 2.58
0.56 0.69 0.85 0.86 0.83 0.72 0.45 0.51 0.55 0.39 0.37 0.45 0.51 0.50 0.46 0.42 0.49 0.68 0.83 0.96 1.07 1.17 1.26 1.29 1.28 1.33 1.34 1.36 1.40 1.47 1.53 1.56 1.62 1.72 1.64 1.51 1.40 1.35 1.35 1.27 1.33 1.45 1.51 1.70 1.77 1.71 1.76 1.95 2.17
0.51 0.53 0.74 0.83 0.75 0.65 0.50 0.65 0.59 0.40 0.34 0.35 0.39 0.47 0.54 0.65 0.75 0.86 0.97 1.06 1.10 1.22 1.27 1.21 1.19 1.18 1.11 1.05 1.10 1.11 1.15 1.20 1.23 1.24 1.19 1.11 1.06 1.03 1.00 0.99 1.01 1.08 1.16 1.38 1.60 1.58 1.59 1.66 1.77
0.43 0.42 0.44 0.60 0.58 0.61 0.55 0.65 0.59 0.38 0.32 0.32 0.34 0.43 0.58 0.77 1.01 1.18 1.18 1.08 0.99 1.04 1.10 1.08 1.03 0.98 0.90 0.84 0.87 0.90 0.96 0.98 0.95 0.92 0.87 0.85 0.79 0.80 0.77 0.80 0.89 0.95 0.94 1.04 1.17 1.35 1.43 1.50 1.58
0.33 0.36 0.45 0.67 0.76 0.78 0.66 0.72 0.66 0.47 0.39 0.35 0.39 0.50 0.69 0.89 1.10 1.36 1.49 1.36 1.08 0.90 0.93 0.89 0.85 0.87 0.85 0.80 0.83 0.83 0.75 0.68 0.68 0.70 0.64 0.63 0.67 0.71 0.71 0.68 0.70 0.76 0.78 0.87 0.98 1.05 1.15 1.23 1.39
0.34 0.39 0.48 0.63 0.64 0.84 1.07 1.06 0.79 0.66 0.56 0.53 0.58 0.64 0.72 1.00 1.29 1.43 1.47 1.33 1.14 0.87 0.79 0.77 0.74 0.77 0.82 0.74 0.76 0.76 0.66 0.53 0.49 0.48 0.46 0.46 0.49 0.55 0.56 0.59 0.65 0.66 0.67 0.69 0.71 0.77 0.83 0.89 1.00
0.31 0.38 0.52 0.78 0.80 0.75 0.94 1.00 0.64 0.66 0.74 0.68 0.73 0.79 0.82 0.91 0.96 0.97 1.07 1.08 1.00 0.86 0.79 0.84 0.88 0.87 0.79 0.70 0.66 0.63 0.56 0.48 0.47 0.44 0.39 0.41 0.46 0.48 0.49 0.55 0.58 0.58 0.64 0.66 0.66 0.66 0.69 0.78 0.86